Wind_Speed
23 22 20 19 18 19 18 18 17 17 17 16 16 17 18 18 18 19 19 19 19 18 16 16 16 15 15 15 14 14 14 14 13 14 12 10 14 15 14 12 12 9 10
27 25 24 23 21 20 21 20 18 18 18 17 18 19 19 17 18 19 19 18 18 17 17 18 18 17 18 17 17 16 15 15 15 16 17 15 15 13 18 17 16 15 11
30 28 27 25 24 24 23 22 21 21 21 20 21 22 22 22 22 22 22 21 21 21 21 22 22 21 21 20 20 19 18 18 17 16 19 17 20 18 18 19 19 20 16
35 32 30 29 28 27 25 24 24 23 23 23 23 24 24 24 25 24 24 24 25 24 23 22 24 23 23 22 24 23 22 23 23 17 22 19 14 16 17 19 16 20 18
36 35 33 32 30 29 28 27 26 26 26 26 26 25 27 26 26 28 30 28 28 28 28 26 26 28 28 27 27 25 25 25 23 19 23 23 20 19 20 22 24 24 22
37 37 36 34 32 30 30 29 28 28 28 28 29 29 28 28 28 31 33 33 32 31 31 32 30 29 29 28 28 26 26 24 26 25 27 24 23 26 28 28 28 30 28
39 34 34 36 37 35 34 32 32 31 29 29 26 27 29 31 35 36 35 36 35 34 34 35 35 30 32 32 31 30 30 31 31 31 30 31 29 27 27 29 32 32 34
44 40 37 38 41 36 36 34 34 32 35 30 32 31 34 33 30 30 39 39 39 37 36 37 36 34 33 35 35 35 36 38 37 35 34 32 32 31 31 32 31 32 32
44 47 40 40 39 41 35 36 36 36 37 38 35 36 34 38 41 37 32 39 40 41 43 43 42 40 40 42 38 40 37 34 36 37 34 33 32 32 31 33 32 33 33
49 54 40 40 39 39 36 43 48 40 37 42 42 37 42 38 40 38 38 35 42 45 49 48 47 49 45 35 37 41 42 37 31 31 31 29 30 32 34 34 34 34 35
40 50 48 44 44 38 41 44 42 39 37 32 29 34 36 37 40 43 41 41 46 48 50 56 56 54 61 57 43 36 32 27 27 27 30 31 32 33 35 37 38 40 41
22 17 32 32 43 30 30 34 34 32 40 45 40 44 38 39 37 42 34 31 32 42 54 57 57 51 46 43 37 32 29 29 31 34 35 37 39 39 39 42 43 44 44
11 14 15 16 19 23 21 15 25 22 30 31 35 32 35 41 43 40 34 30 23 29 28 25 32 34 33 29 29 30 32 35 38 38 40 42 42 42 39 41 43 44 44
12 13 15 20 21 21 22 21 19 23 27 25 26 36 33 34 33 29 30 31 28 27 25 25 27 27 27 28 33 36 39 42 42 41 43 44 45 45 47 48 47 46 47
24 23 24 21 22 23 22 24 24 25 25 21 24 24 20 22 23 28 30 35 30 37 41 33 32 35 37 39 38 40 44 49 51 50 49 50 51 53 54 50 49 53 55
24 27 29 26 26 26 25 26 26 27 29 28 31 33 30 36 32 39 43 44 45 47 44 43 42 42 43 45 48 51 52 55 55 56 55 52 53 53 53 52 52 55 57
18 21 23 25 25 26 28 29 29 30 29 30 33 36 40 41 37 37 38 37 38 40 41 43 44 44 45 47 48 51 53 53 54 55 55 56 55 54 53 55 55 55 55
23 23 24 25 25 26 27 27 28 28 29 31 32 33 36 38 41 42 44 46 46 47 46 48 50 51 52 52 53 53 55 54 55 54 56 57 57 57 56 56 56 56 56
24 23 24 25 27 27 30 31 31 32 33 34 35 37 39 40 41 43 44 45 47 49 51 52 54 55 57 58 58 58 59 61 61 61 61 61 61 60 60 59 60 60 60
20 21 23 25 28 30 31 32 31 28 27 27 29 30 33 39 41 43 46 47 50 52 54 56 58 59 60 61 62 61 61 61 60 60 61 60 60 60 61 59 60 59 59
18 15 13 12 14 17 20 23 25 26 27 29 34 36 40 41 43 46 49 51 53 54 55 57 59 61 64 67 68 68 69 68 66 66 65 64 64 63 62 60 58 57 58
11 13 16 19 21 21 23 25 27 29 33 37 41 43 43 47 50 52 53 54 56 57 57 57 57 59 64 67 68 69 69 69 68 66 66 65 63 61 61 58 56 55 53
16 17 19 21 24 26 29 31 34 37 40 44 48 49 50 51 51 52 53 52 53 54 55 56 56 58 59 64 62 64 67 70 69 67 62 61 59 54 48 49 48 48 47
20 22 24 26 28 30 33 36 39 43 46 49 51 52 52 53 55 54 52 52 54 56 57 58 59 59 57 54 57 57 58 61 58 45 42 42 39 38 39 39 41 41 44
25 27 28 30 33 35 38 41 46 49 52 54 57 57 56 54 51 51 52 54 55 52 53 50 44 39 33 45 42 46 44 38 26 32 34 31 29 28 31 35 37 35 35
27 27 29 31 34 38 41 44 47 50 52 55 57 54 50 47 48 49 51 49 47 48 49 43 39 38 35 36 39 34 30 27 33 31 32 26 27 26 29 32 30 28 30
Wind_Direction
218 220 220 219 216 212 213 217 219 223 224 227 232 241 243 242 246 252 256 258 261 263 266 268 269 271 273 279 290 297 300 300 305 304 305 308 311 314 315 316 317 321 312
221 221 222 223 219 220 224 224 224 225 230 235 234 234 242 249 253 256 254 252 254 261 265 265 268 270 274 276 277 279 285 290 299 298 301 309 307 302 315 313 311 304 307
226 225 225 225 222 221 222 225 230 235 238 236 239 244 249 251 254 253 256 253 254 254 260 265 266 268 269 271 274 276 281 283 284 285 285 293 295 307 282 303 298 300 308
228 230 232 232 234 234 235 234 235 237 240 244 248 248 249 252 255 256 255 257 259 259 261 261 263 266 270 275 271 270 274 279 280 269 281 283 278 280 298 301 301 281 299
233 232 233 234 236 239 241 244 248 249 249 249 248 251 255 253 255 256 256 255 257 255 259 261 263 267 271 274 274 276 277 279 280 276 286 281 281 278 279 279 285 287 289
234 237 239 239 237 238 243 245 250 251 255 253 251 260 257 259 260 258 256 258 255 256 259 260 256 259 264 268 271 269 271 271 278 277 276 274 279 285 282 282 285 287 287
239 235 238 246 242 239 243 245 248 251 250 251 249 252 262 267 272 269 255 255 256 257 257 256 258 258 260 263 265 265 266 268 273 276 274 276 281 279 278 275 277 280 283
232 238 238 247 244 240 244 244 246 251 252 244 258 263 266 262 262 268 263 259 257 251 254 257 256 255 259 262 265 265 269 270 271 275 272 269 271 274 275 279 281 285 284
235 238 243 240 240 239 250 243 241 257 254 258 266 264 265 259 265 269 265 259 253 250 252 253 252 257 258 264 264 265 268 264 267 273 268 268 271 268 271 274 276 283 290
233 230 237 243 244 244 244 247 256 264 258 259 259 267 262 264 269 267 267 266 258 256 254 259 258 255 255 252 260 253 254 260 263 264 262 267 269 272 277 280 284 285 286
231 236 234 235 239 250 254 247 252 254 253 253 249 243 255 255 262 266 273 266 258 256 255 253 255 260 251 253 241 244 243 249 260 265 269 272 274 276 278 279 280 282 283
207 231 228 236 242 241 227 234 254 250 246 257 258 263 252 266 261 261 260 253 254 256 253 253 251 246 243 240 239 239 246 254 263 268 272 276 278 278 278 279 279 280 281
224 218 205 234 243 248 251 245 243 255 259 266 255 260 247 243 251 260 240 227 221 230 234 239 243 242 242 253 267 271 278 282 280 277 278 280 280 278 276 278 280 280 281
270 264 253 258 274 284 286 293 287 282 278 281 268 254 269 257 257 239 242 237 238 245 254 267 272 271 267 273 279 279 280 279 278 279 281 281 281 279 281 281 282 276 279
258 252 258 263 268 270 274 278 277 275 273 280 262 251 245 243 248 250 249 244 256 288 303 300 287 282 284 284 281 276 278 282 283 281 280 280 281 281 281 279 273 276 278
244 247 257 264 267 270 272 271 271 269 271 272 269 276 273 271 264 285 297 298 300 299 299 296 291 284 281 279 279 277 275 276 279 281 281 280 280 280 280 279 278 276 275
258 252 260 265 272 278 281 282 280 278 276 272 274 274 279 288 290 290 291 291 289 287 284 283 281 278 277 276 275 275 276 276 277 277 277 278 277 276 277 278 279 278 278
258 264 268 271 275 281 285 290 291 291 289 290 288 287 287 287 286 289 291 292 291 290 287 285 283 282 281 279 278 278 277 275 273 275 276 276 277 278 278 278 277 278 278
257 269 278 281 284 286 285 287 291 293 294 294 294 295 294 294 293 294 294 293 292 291 290 289 288 286 285 284 282 280 279 279 278 276 276 276 276 277 276 277 277 278 279
270 276 282 286 287 288 290 292 295 296 295 297 301 303 303 301 299 297 296 295 294 292 290 288 288 288 287 286 285 283 280 278 276 276 276 276 275 276 278 278 279 278 279
290 296 302 304 301 298 299 298 297 298 300 302 301 301 298 294 292 292 293 292 292 290 289 289 287 285 283 281 281 280 279 279 278 277 277 277 277 277 277 278 279 279 280
283 287 290 290 290 292 293 292 293 293 293 295 300 302 299 298 299 300 299 299 297 295 291 288 284 279 277 276 275 277 278 278 277 277 278 278 278 279 280 279 279 278 278
278 283 287 290 293 295 297 298 296 296 300 303 308 308 307 305 305 304 302 298 296 294 291 289 287 285 282 279 275 273 272 273 273 276 278 280 280 280 279 277 277 276 276
293 295 297 298 298 299 301 305 307 307 308 310 310 311 312 311 309 306 304 303 303 301 299 298 297 295 291 285 283 275 271 271 274 279 279 280 277 275 273 271 272 271 271
316 314 313 313 313 313 312 310 310 310 310 311 314 315 315 313 311 310 310 310 310 310 309 308 308 306 300 288 286 280 275 269 265 259 272 274 271 273 276 277 271 271 278
312 311 310 310 308 307 306 307 307 308 310 312 314 315 313 312 311 312 312 312 311 310 309 303 302 305 301 296 298 296 266 255 248 258 263 264 273 273 273 274 282 281 282
Height
5907 5911 5913 5916 5918 5920 5922 5924 5926 5927 5928 5930 5931 5932 5933 5934 5934 5935 5936 5936 5936 5937 5937 5937 5936 5936 5935 5935 5934 5933 5933 5932 5932 5930 5930 5930 5929 5928 5927 5925 5924 5923 5921
5903 5906 5910 5912 5915 5917 5919 5921 5922 5924 5925 5927 5929 5930 5930 5931 5931 5931 5932 5932 5933 5933 5934 5933 5933 5933 5932 5931 5930 5930 5929 5928 5928 5927 5927 5927 5925 5922 5924 5924 5922 5919 5921
5899 5902 5905 5908 5910 5913 5915 5917 5919 5921 5922 5924 5924 5925 5926 5926 5927 5928 5928 5929 5929 5928 5929 5929 5929 5929 5928 5928 5927 5926 5925 5925 5924 5924 5922 5923 5919 5906 5910 5917 5919 5918 5919
5893 5897 5900 5903 5905 5907 5909 5912 5914 5915 5917 5919 5920 5921 5922 5923 5923 5924 5924 5924 5924 5925 5924 5923 5924 5924 5924 5923 5923 5922 5921 5921 5920 5919 5918 5917 5917 5915 5901 5913 5916 5908 5914
5888 5892 5895 5897 5900 5903 5905 5907 5908 5910 5911 5913 5914 5915 5916 5917 5918 5918 5918 5918 5919 5919 5919 5919 5919 5918 5918 5918 5917 5917 5916 5916 5915 5915 5913 5912 5911 5912 5912 5911 5909 5908 5906
5882 5886 5889 5892 5894 5896 5898 5900 5901 5903 5904 5905 5906 5907 5908 5909 5910 5911 5911 5911 5912 5912 5912 5913 5911 5911 5911 5912 5911 5911 5910 5910 5909 5909 5907 5907 5906 5905 5904 5902 5901 5901 5902
5874 5878 5881 5885 5887 5888 5890 5892 5894 5895 5896 5897 5898 5899 5900 5901 5900 5900 5900 5902 5905 5905 5904 5904 5904 5905 5903 5903 5903 5903 5904 5904 5903 5903 5902 5901 5900 5898 5897 5896 5895 5893 5891
5867 5870 5872 5875 5877 5880 5882 5884 5886 5887 5888 5889 5890 5892 5891 5892 5891 5891 5891 5892 5894 5897 5895 5895 5895 5897 5896 5895 5895 5895 5895 5894 5894 5894 5892 5892 5891 5891 5890 5889 5888 5886 5883
5858 5861 5863 5865 5869 5871 5873 5875 5876 5879 5880 5882 5881 5881 5881 5882 5881 5882 5882 5882 5883 5884 5885 5885 5886 5887 5886 5887 5886 5885 5885 5885 5884 5884 5884 5882 5882 5882 5880 5879 5879 5877 5875
5846 5847 5853 5857 5860 5863 5865 5866 5867 5868 5871 5872 5872 5872 5872 5872 5872 5871 5872 5873 5874 5874 5874 5874 5876 5875 5875 5873 5875 5875 5874 5874 5873 5874 5874 5873 5872 5872 5871 5869 5868 5867 5864
5836 5836 5842 5848 5851 5854 5854 5858 5858 5858 5860 5861 5860 5859 5860 5861 5861 5862 5862 5861 5862 5861 5861 5862 5862 5862 5861 5859 5859 5860 5861 5862 5863 5863 5864 5863 5862 5862 5860 5859 5858 5857 5855
5827 5827 5833 5838 5841 5845 5844 5846 5849 5848 5850 5850 5852 5851 5849 5850 5849 5851 5851 5849 5849 5849 5850 5848 5847 5847 5847 5847 5847 5848 5850 5850 5851 5852 5852 5852 5851 5850 5849 5847 5846 5844 5842
5821 5824 5828 5829 5832 5833 5834 5835 5838 5839 5839 5841 5841 5840 5840 5840 5840 5839 5840 5840 5840 5839 5838 5839 5839 5839 5838 5839 5839 5839 5840 5840 5841 5840 5840 5839 5838 5837 5836 5834 5832 5831 5829
5818 5820 5821 5821 5823 5825 5828 5830 5831 5833 5832 5832 5833 5834 5834 5833 5832 5832 5832 5831 5831 5832 5831 5830 5830 5830 5830 5832 5831 5832 5832 5832 5830 5829 5827 5827 5826 5824 5821 5821 5820 5818 5815
5815 5819 5820 5821 5821 5823 5824 5826 5827 5829 5828 5826 5826 5827 5825 5825 5824 5824 5823 5822 5821 5820 5821 5822 5822 5823 5822 5821 5821 5819 5819 5818 5817 5815 5814 5813 5811 5810 5810 5807 5805 5803 5801
5811 5812 5814 5816 5816 5816 5817 5819 5819 5820 5821 5821 5820 5819 5819 5818 5817 5816 5815 5814 5813 5812 5810 5810 5810 5810 5810 5808 5808 5807 5806 5804 5803 5800 5799 5796 5794 5792 5792 5790 5788 5786 5783
5808 5809 5810 5810 5810 5810 5811 5813 5812 5812 5811 5811 5811 5811 5810 5808 5806 5806 5806 5805 5804 5803 5802 5801 5799 5798 5797 5796 5793 5792 5792 5790 5786 5784 5783 5781 5778 5776 5775 5774 5772 5770 5768
5802 5803 5804 5804 5804 5804 5804 5804 5804 5804 5805 5804 5804 5803 5802 5801 5799 5798 5796 5794 5792 5790 5788 5787 5785 5783 5782 5780 5778 5776 5773 5774 5770 5768 5765 5764 5763 5761 5759 5757 5755 5754 5752
5797 5798 5798 5798 5798 5798 5798 5797 5796 5795 5795 5795 5794 5793 5792 5789 5787 5785 5783 5780 5778 5775 5772 5770 5768 5765 5762 5761 5761 5759 5756 5753 5752 5750 5747 5745 5744 5742 5740 5739 5739 5736 5733
5791 5791 5791 5792 5792 5792 5791 5790 5790 5788 5786 5784 5781 5781 5781 5776 5774 5772 5770 5766 5763 5760 5757 5755 5751 5748 5745 5741 5739 5737 5735 5734 5732 5729 5727 5727 5724 5722 5720 5720 5717 5718 5714
5784 5784 5784 5784 5786 5785 5785 5783 5783 5781 5779 5777 5775 5775 5772 5770 5767 5762 5758 5754 5751 5747 5742 5738 5734 5730 5725 5721 5719 5716 5713 5710 5710 5708 5705 5704 5703 5702 5701 5699 5697 5697 5696
5783 5783 5783 5783 5782 5780 5779 5778 5777 5774 5773 5770 5766 5764 5761 5755 5750 5745 5740 5734 5730 5725 5721 5717 5714 5710 5705 5701 5698 5695 5691 5689 5688 5688 5685 5683 5683 5681 5681 5681 5680 5680 5679
5778 5778 5778 5777 5776 5774 5772 5770 5767 5764 5761 5756 5751 5746 5741 5737 5732 5726 5721 5716 5711 5705 5700 5696 5692 5688 5684 5676 5677 5674 5669 5666 5666 5665 5663 5663 5663 5663 5663 5663 5663 5661 5661
5771 5770 5769 5768 5765 5763 5761 5758 5754 5751 5747 5742 5738 5732 5726 5720 5714 5707 5701 5694 5688 5683 5678 5672 5665 5660 5657 5651 5647 5647 5646 5645 5644 5645 5645 5646 5646 5647 5646 5647 5647 5647 5645
5763 5761 5759 5757 5754 5751 5749 5745 5741 5737 5733 5727 5721 5715 5709 5702 5695 5690 5683 5675 5668 5660 5654 5648 5643 5640 5637 5633 5632 5625 5627 5628 5632 5634 5634 5634 5634 5635 5635 5635 5635 5635 5634
5757 5755 5752 5750 5747 5744 5740 5736 5732 5727 5721 5715 5709 5703 5697 5692 5686 5679 5672 5665 5657 5650 5643 5637 5633 5628 5625 5622 5617 5615 5615 5616 5620 5622 5624 5625 5625 5625 5625 5625 5624 5623 5622